• Processing (Info)

  • MPEC 2023-J136 : 2023 JY1

    The following Minor Planet Electronic Circular may be linked-to from your own Web pages, but must not otherwise be redistributed electronically.

    A form allowing access to any MPEC is at the bottom of this page.


    Read MPEC 2023-J135 Read MPEC 2023-J137


    M.P.E.C. 2023-J136                                 Issued 2023 May 14, 11:42 UT
    
         The Minor Planet Electronic Circulars contain information on unusual
             minor planets, routine data on comets and natural satellites,
             and occasional editorial announcements.  They are published
        on behalf of Division F of the International Astronomical Union by the
              Minor Planet Center, Smithsonian Astrophysical Observatory,
                              Cambridge, MA 02138, U.S.A.
    			  
                 Prepared using the Tamkin Foundation Computer Network
    
                                  MPC@CFA.HARVARD.EDU
                URL https://www.minorplanetcenter.net/    ISSN 1523-6714
    
                                    2023 JY1                                 
    
    
    Observations:
         K23J01Y 1C2023 05 08.41019 17 24 56.80 +43 27 34.7          20.8 GVEJ136G96
         K23J01Y 1C2023 05 08.42673 17 25 01.31 +43 23 29.5          21.1 GVEJ136G96
         K23J01Y 1C2023 05 09.39448 17 30 16.85 +39 19 47.2          20.4 GVEJ136G96
         K23J01Y 1C2023 05 09.39979 17 30 18.17 +39 18 26.4          21.1 GVEJ136G96
         K23J01Y 1C2023 05 09.40507 17 30 19.48 +39 17 02.6          21.4 GVEJ136G96
         K23J01Y 1C2023 05 12.41672 17 43 52.80 +25 33 39.0          20.5 GVEJ136G96
         K23J01Y 1C2023 05 12.42720 17 43 54.66 +25 30 39.6                VEJ136G96
         K23J01Y 1C2023 05 12.43244 17 43 55.59 +25 29 10.1                VEJ136G96
         K23J01Y*1C2023 05 13.43604117 47 39.894+20 44 14.60         20.60GVEJ136G96
         K23J01Y 1C2023 05 13.44117117 47 40.715+20 42 47.52         20.56GVEJ136G96
         K23J01Y 1C2023 05 13.44629317 47 41.536+20 41 19.43         20.31GVEJ136G96
         K23J01Y KC2023 05 13.46437517 47 44.430+20 36 10.48         20.00GVEJ136I52
         K23J01Y KC2023 05 13.46590417 47 44.675+20 35 44.56         20.65GVEJ136I52
         K23J01Y mC2023 05 14.37211717 50 54.607+16 19 42.74         20.25GVEJ136I52
         K23J01Y mC2023 05 14.37240317 50 54.611+16 19 37.88         20.58GVEJ136I52
         K23J01Y mC2023 05 14.37268917 50 54.704+16 19 33.64         21.46GVEJ136I52
         K23J01Y mC2023 05 14.37297517 50 54.686+16 19 28.60         20.29GVEJ136I52
    
    Observer details:
    G96 Mt. Lemmon Survey.  Observers R. A. Kowalski, G. J. Leonard, D. Rankin.
        Measurers B. Gray, D. Rankin, F. C. Shelly, E. J. Christensen, D. Fay, J.
        B. Fazekas, D. C. Fuls, A. R. Gibbs, A. D. Grauer, H. Groeller, J. K.
        Hogan, R. A. Kowalski, S. M. Larson, G. J. Leonard, R. L. Seaman, A.
        Serrano, K. W. Wierzchos.  1.5-m reflector + 10K CCD.
    I52 Steward Observatory, Mt. Lemmon Station.  Observer K. W. Wierzchos.
        Measurers E. J. Christensen, D. Fay, J. B. Fazekas, D. C. Fuls, A. R.
        Gibbs, A. D. Grauer, H. Groeller, J. K. Hogan, R. A. Kowalski, S. M.
        Larson, G. J. Leonard, D. Rankin, R. L. Seaman, A. Serrano, F. C. Shelly,
        K. W. Wierzchos.  1.0-m prime focus + CCD.
    
    Orbital elements:
    2023 JY1                                                 Earth MOID = 0.0548 AU
    Epoch 2023 Feb. 25.0 TT = JDT 2460000.5                 Veres                   
    M 340.49543              (2000.0)            P               Q                  
    n   0.35640249     Peri.  140.68651     -0.88154963     +0.44332390             
    a   1.9701936      Node    66.34844     -0.46536248     -0.75820192             
    e   0.4862381      Incl.   10.20432     -0.07942298     -0.47811480             
    P   2.77           H   24.92          G   0.15           U   8                  
    Residuals in seconds of arc
    230508 G96 (0.2-  1.5+)   230512 G96  0.0   0.1+    230513 I52  0.0   0.3+
    230508 G96  0.1-  0.1-    230512 G96  0.0   0.2-    230514 I52  0.3+  0.1-
    230509 G96  0.1-  0.4+    230513 G96  0.1-  0.3-    230514 I52  0.3-  0.2-
    230509 G96 (0.1+  1.7+)   230513 G96  0.0   0.2+    230514 I52  0.5+  0.4+
    230509 G96  0.3+  0.3-    230513 G96  0.1+  0.3-    230514 I52  0.4-  0.1+
    230512 G96  0.0   1.1+    230513 I52  0.0   0.0
    
    Ephemeris:
    2023 JY1                 a,e,i = 1.97, 0.49, 10                  q = 1.0122
    Date    TT    R. A. (2000) Decl.     Delta      r    Elong.  Phase     V
    2023 04 14    11 24 10.3 +78 40 15   0.1488  1.0154    90.7    80.9    23.6
    ...
    2023 04 29    15 59 53.5 +70 13 42   0.09071 1.0170    93.9    81.0    22.6
    ...
    2023 05 07    17 16 26.4 +48 56 59   0.06682 1.0305   107.2    69.2    21.5
    ...
    2023 05 13    17 46 06.3 +22 48 44   0.06026 1.0461   125.2    52.1    20.8
    2023 05 14    17 49 38.5 +18 05 21   0.06057 1.0491   128.4    49.1    20.8
    2023 05 15    17 52 51.7 +13 25 37   0.06130 1.0522   131.4    46.1    20.7
    ...
    2023 05 21    18 06 47.7 -10 33 57   0.07359 1.0734   145.5    32.3    20.8
    ...
    2023 05 29    18 15 24.4 -29 27 01   0.1042  1.1073   153.1    24.5    21.4
    ...
    2023 06 13    18 15 46.0 -43 14 54   0.1816  1.1849   157.1    19.5    22.6
    
    M. P. C. Staff               (C) Copyright 2023 MPC           M.P.E.C. 2023-J136
    


    Read MPEC 2023-J135 Read MPEC 2023-J137


    MPEC number:

    Enter an MPEC number in one of the following forms:

    • 1997-B01 (the full form)
    • J97B01 (the packed version of the full form)
    • B01 (the abbreviated form)